Retour au catalogue

METEOR 2-8 DEB

ActifPO
NORAD 36865·DEBRIS·🇷🇺 Russia

Lancé Mar 25, 1982 depuis Plesetsk Cosmodrome

Loading…

Prochains Passages (prochaines 24 heures)

TLE

VieillissantSource: Space-Track

Époque: Sep 10, 2026, 08:02 UTC

1 36865U 82025BC  26253.33528872  .00001782  00000-0  68635-3 0  9990
2 36865  82.5361 114.1039 0020495  16.0697 344.1134 14.29766043151091

Suivez METEOR 2-8 DEB en temps réel avec AllMySat

Download on the App Store